Date String (YYYY-MM-DD hh:mm:ss) UTC,Instrument flags,Ambient pressure (hPa),Sample flow (lpm),Bypass flow (lpm),Sample temperature (°C),Ambient temperature (°C),ASC tube jacket temperature (°C),LED temperature (°C),Box temperature (°C),Sample RH (%),Span deviation,Mass concentration (μg/m³),Mass concentration (μg/m³),Mass concentration (μg/m³)
DateTimeUTC,F1_M11,P_M11,Q1_M11,Q2_M11,T1_M11,T2_M11,T3_M11,T4_M11,T5_M11,U1_M11,ZSPAN_M11,X0_M11,X2_M11,X1_M11
2022-04-01 08:00:00,,0816.4,5.00,0.00,28.1,27.1,00.0,37.0,29.8,09.4,0000.0,0011.46,0003.50,0001.97
2022-04-01 08:01:00,,0816.5,4.99,0.00,28.1,27.1,00.0,37.0,29.9,09.5,0000.0,0011.36,0003.49,0002.00
2022-04-01 08:02:00,,0816.5,4.99,0.00,28.1,27.1,00.0,37.0,29.9,09.5,0000.0,0011.40,0003.52,0002.01
2022-04-01 08:03:00,,0816.4,5.01,0.00,28.1,27.1,00.0,37.0,29.9,09.6,0000.0,0012.10,0003.52,0002.01
2022-04-01 08:04:00,,0816.5,5.00,0.00,28.1,27.2,00.0,37.0,29.8,09.6,0000.0,0012.55,0003.51,0002.03
2022-04-01 08:05:00,,0816.4,5.00,0.00,28.1,27.2,00.0,37.0,29.9,09.6,0000.0,0012.12,0003.50,0002.02
2022-04-01 08:06:00,,0816.5,5.02,0.00,28.1,27.2,00.0,37.1,29.9,09.7,0000.0,0011.81,0003.51,0002.02
2022-04-01 08:07:00,,0816.5,4.98,0.00,28.1,27.2,00.0,37.1,29.9,09.7,0000.0,0011.80,0003.57,0002.02
2022-04-01 08:08:00,,0816.5,4.99,0.00,28.1,27.2,00.0,37.1,29.9,09.7,0000.0,0011.24,0003.55,0002.02
2022-04-01 08:09:00,,0816.6,5.01,0.00,28.1,27.2,00.0,37.1,29.9,09.8,0000.0,0010.05,0003.54,0002.03
2022-04-01 08:10:00,,0816.5,5.01,0.00,28.1,27.1,00.0,37.1,29.8,09.9,0000.0,0010.01,0003.55,0002.04
2022-04-01 08:11:00,,0816.6,4.98,0.00,28.0,27.0,00.0,37.0,29.8,10.0,0000.0,0010.27,0003.56,0002.04
2022-04-01 08:12:00,,0816.6,5.01,0.00,28.0,27.0,00.0,37.0,29.8,09.9,0000.0,0010.28,0003.57,0002.03
2022-04-01 08:13:00,,0816.7,5.00,0.00,28.0,27.0,00.0,37.0,29.8,09.9,0000.0,0010.65,0003.52,0002.02
2022-04-01 08:14:00,,0816.5,5.00,0.00,28.0,27.0,00.0,37.0,29.8,09.9,0000.0,0009.93,0003.47,0002.02
2022-04-01 08:15:00,,0816.5,5.01,0.00,28.0,27.0,00.0,37.0,29.8,09.8,0000.0,0009.46,0003.44,0002.00
2022-04-01 08:16:00,,0816.7,4.98,0.00,28.0,27.0,00.0,37.0,29.7,09.8,0000.0,0009.04,0003.42,0001.99
2022-04-01 08:17:00,,0816.6,5.01,0.00,28.0,27.0,00.0,37.0,29.8,09.7,0000.0,0009.08,0003.41,0001.98
2022-04-01 08:18:00,,0816.7,4.99,0.00,28.0,27.0,00.0,37.0,29.8,09.7,0000.0,0009.23,0003.39,0001.98
2022-04-01 08:19:00,,0816.6,5.01,0.00,28.0,27.1,00.0,37.0,29.8,09.5,0000.0,0009.85,0003.37,0001.98
2022-04-01 08:20:00,,0816.6,4.99,0.00,28.0,27.0,00.0,37.0,29.8,09.4,0000.0,0010.45,0003.40,0001.99
2022-04-01 08:21:00,,0816.6,5.00,0.00,28.0,27.0,00.0,37.0,29.8,09.4,0000.0,0011.08,0003.44,0002.01
2022-04-01 08:22:00,,0816.6,5.00,0.00,28.0,27.0,00.0,37.0,29.8,09.5,0000.0,0010.99,0003.43,0002.03
2022-04-01 08:23:00,,0816.7,4.99,0.00,28.0,27.0,00.0,37.0,29.8,09.5,0000.0,0011.25,0003.49,0002.07
2022-04-01 08:24:00,,0816.6,5.00,0.00,28.0,27.0,00.0,37.0,29.8,09.5,0000.0,0010.98,0003.52,0002.11
2022-04-01 08:25:00,,0816.6,5.01,0.00,28.0,27.0,00.0,37.0,29.8,09.5,0000.0,0011.26,0003.55,0002.15
2022-04-01 08:26:00,,0816.6,4.99,0.00,28.0,27.1,00.0,37.0,29.8,09.5,0000.0,0011.41,0003.59,0002.19
2022-04-01 08:27:00,,0816.6,5.02,0.00,28.0,27.1,00.0,37.0,29.8,09.5,0000.0,0011.47,0003.66,0002.23
2022-04-01 08:28:00,,0816.5,4.99,0.00,28.0,27.1,00.0,37.0,29.8,09.5,0000.0,0011.46,0003.69,0002.26
2022-04-01 08:29:00,,0816.5,4.99,0.00,28.0,27.1,00.0,37.0,29.8,09.6,0000.0,0011.45,0003.68,0002.28
2022-04-01 08:30:00,,0816.5,5.02,0.00,28.0,27.1,00.0,37.0,29.8,09.6,0000.0,0010.65,0003.69,0002.29
2022-04-01 08:31:00,,0816.6,4.99,0.00,28.0,27.1,00.0,37.0,29.8,09.6,0000.0,0010.19,0003.68,0002.29
2022-04-01 08:32:00,,0816.6,5.00,0.00,28.0,27.1,00.0,37.0,29.8,09.6,0000.0,0009.07,0003.62,0002.27
2022-04-01 08:33:00,,0816.5,5.02,0.00,28.0,27.1,00.0,37.0,29.8,09.8,0000.0,0008.90,0003.64,0002.26
2022-04-01 08:34:00,,0816.6,5.00,0.00,28.0,27.1,00.0,37.0,29.8,10.0,0000.0,0008.74,0003.65,0002.24
2022-04-01 08:35:00,,0816.5,4.99,0.00,28.0,27.1,00.0,37.0,29.8,10.0,0000.0,0008.79,0003.62,0002.20
2022-04-01 08:36:00,,0816.5,5.01,0.00,28.0,27.1,00.0,37.0,29.8,10.0,0000.0,0008.53,0003.58,0002.15
2022-04-01 08:37:00,,0816.5,4.99,0.00,28.0,27.1,00.0,37.0,29.8,10.0,0000.0,0008.70,0003.58,0002.11
2022-04-01 08:38:00,,0816.5,4.99,0.00,28.0,27.1,00.0,37.0,29.8,10.1,0000.0,0008.65,0003.54,0002.08
2022-04-01 08:39:00,,0816.5,5.01,0.00,28.0,27.1,00.0,37.0,29.8,10.1,0000.0,0008.47,0003.49,0002.05
2022-04-01 08:40:00,,0816.5,5.00,0.00,28.0,27.1,00.0,37.0,29.8,10.1,0000.0,0008.28,0003.47,0002.00
2022-04-01 08:41:00,,0816.5,4.99,0.00,28.0,27.1,00.0,37.0,29.8,10.1,0000.0,0008.29,0003.42,0001.96
2022-04-01 08:42:00,,0816.5,4.99,0.00,28.0,27.1,00.0,37.0,29.8,10.1,0000.0,0008.37,0003.41,0001.94
2022-04-01 08:43:00,,0816.5,5.01,0.00,28.0,27.1,00.0,37.0,29.8,10.1,0000.0,0008.38,0003.42,0001.90
2022-04-01 08:44:00,,0816.4,4.99,0.00,28.0,27.0,00.0,37.0,29.8,10.1,0000.0,0008.66,0003.42,0001.87
2022-04-01 08:45:00,,0816.4,5.01,0.00,28.0,27.1,00.0,37.0,29.8,10.0,0000.0,0008.57,0003.34,0001.86
2022-04-01 08:46:00,,0816.5,4.99,0.00,28.0,27.0,00.0,37.0,29.8,10.0,0000.0,0008.41,0003.30,0001.86
2022-04-01 08:47:00,,0816.5,5.00,0.00,28.0,27.0,00.0,37.0,29.8,10.0,0000.0,0008.36,0003.33,0001.88
2022-04-01 08:48:00,,0816.6,5.01,0.00,28.0,27.0,00.0,36.9,29.7,10.0,0000.0,0007.93,0003.35,0001.91
2022-04-01 08:49:00,,0816.4,4.98,0.00,28.0,27.0,00.0,36.9,29.7,09.9,0000.0,0008.03,0003.31,0001.92
2022-04-01 08:50:00,,0816.4,5.01,0.00,28.0,27.0,00.0,36.9,29.7,09.9,0000.0,0008.68,0003.36,0001.96
2022-04-01 08:51:00,,0816.4,4.99,0.00,27.9,27.0,00.0,36.9,29.7,09.8,0000.0,0009.33,0003.40,0002.01
2022-04-01 08:52:00,,0816.4,5.01,0.00,27.9,27.0,00.0,36.9,29.7,09.8,0000.0,0009.61,0003.46,0002.05
2022-04-01 08:53:00,,0816.4,4.99,0.00,27.9,27.0,00.0,36.9,29.7,09.8,0000.0,0009.56,0003.47,0002.09
2022-04-01 08:54:00,,0816.4,5.00,0.00,27.9,26.9,00.0,36.9,29.7,09.6,0000.0,0009.56,0003.49,0002.13
2022-04-01 08:55:00,,0816.4,5.01,0.00,27.9,26.9,00.0,36.9,29.7,09.6,0000.0,0009.28,0003.52,0002.18
2022-04-01 08:56:00,,0816.3,4.99,0.00,27.9,26.9,00.0,36.9,29.7,09.6,0000.0,0009.25,0003.57,0002.23
2022-04-01 08:57:00,,0816.4,5.00,0.00,27.9,26.9,00.0,36.9,29.6,09.5,0000.0,0009.36,0003.62,0002.28
2022-04-01 08:58:00,,0816.4,5.01,0.00,27.9,26.9,00.0,36.9,29.6,09.6,0000.0,0009.37,0003.65,0002.31
2022-04-01 08:59:00,,0816.4,5.00,0.00,27.9,26.9,00.0,36.9,29.6,09.5,0000.0,0009.36,0003.64,0002.33
